TimeEST,TemperatureF,Dew PointF,Humidity,Sea Level PressureIn,VisibilityMPH,Wind Direction,Wind SpeedMPH,Gust SpeedMPH,PrecipitationIn,Events,Conditions,WindDirDegrees,DateUTC
12:53 AM,57.0,51.1,81,30.12,10.0,NNW,10.4,-,N/A,,Partly Cloudy,330,2013-11-28 05:53:00
1:53 AM,54.0,50.0,86,30.13,10.0,North,10.4,-,N/A,,Partly Cloudy,350,2013-11-28 06:53:00
2:53 AM,53.1,48.0,83,30.12,10.0,NNW,12.7,-,N/A,,Scattered Clouds,330,2013-11-28 07:53:00
3:53 AM,51.1,46.9,86,30.14,10.0,NW,10.4,-,N/A,,Partly Cloudy,320,2013-11-28 08:53:00
4:53 AM,50.0,46.9,89,30.15,10.0,NW,6.9,-,N/A,,Partly Cloudy,310,2013-11-28 09:53:00
5:53 AM,48.9,46.0,90,30.17,10.0,NW,9.2,-,N/A,,Partly Cloudy,320,2013-11-28 10:53:00
6:53 AM,48.0,45.0,89,30.19,10.0,NW,6.9,-,N/A,,Partly Cloudy,320,2013-11-28 11:53:00
7:53 AM,48.9,46.0,90,30.21,10.0,NNW,8.1,-,N/A,,Partly Cloudy,330,2013-11-28 12:53:00
8:53 AM,53.1,48.0,83,30.22,10.0,NW,8.1,-,N/A,,Partly Cloudy,320,2013-11-28 13:53:00
9:53 AM,57.9,50.0,75,30.22,10.0,NNW,6.9,-,N/A,,Clear,340,2013-11-28 14:53:00
10:53 AM,63.0,53.1,70,30.22,10.0,North,8.1,-,N/A,,Clear,350,2013-11-28 15:53:00
11:53 AM,68.0,55.9,65,30.19,10.0,North,9.2,-,N/A,,Clear,10,2013-11-28 16:53:00
12:53 PM,71.1,59.0,66,30.16,10.0,NNE,8.1,23.0,N/A,,Partly Cloudy,30,2013-11-28 17:53:00
1:53 PM,72.0,57.9,61,30.15,10.0,NE,11.5,21.9,N/A,,Scattered Clouds,50,2013-11-28 18:53:00
2:53 PM,71.1,55.0,57,30.15,10.0,ENE,12.7,23.0,N/A,,Mostly Cloudy,60,2013-11-28 19:53:00
3:53 PM,70.0,53.1,55,30.17,10.0,NE,10.4,-,N/A,,Mostly Cloudy,40,2013-11-28 20:53:00
4:53 PM,70.0,55.0,59,30.17,10.0,ENE,12.7,-,N/A,,Mostly Cloudy,70,2013-11-28 21:53:00
5:53 PM,69.1,52.0,54,30.19,10.0,NE,11.5,-,N/A,,Partly Cloudy,50,2013-11-28 22:53:00
6:53 PM,68.0,53.1,59,30.22,10.0,NNE,5.8,-,N/A,,Partly Cloudy,20,2013-11-28 23:53:00
7:53 PM,69.1,55.0,61,30.23,10.0,ENE,10.4,-,N/A,,Scattered Clouds,70,2013-11-29 00:53:00
8:53 PM,70.0,55.9,61,30.24,10.0,ENE,13.8,19.6,N/A,,Mostly Cloudy,60,2013-11-29 01:53:00
9:53 PM,69.1,54.0,58,30.24,10.0,ENE,8.1,-,N/A,,Partly Cloudy,70,2013-11-29 02:53:00
10:53 PM,70.0,57.9,65,30.24,10.0,East,10.4,-,N/A,,Overcast,80,2013-11-29 03:53:00
11:53 PM,69.1,54.0,58,30.22,10.0,ENE,8.1,-,N/A,,Partly Cloudy,60,2013-11-29 04:53:00